| time (UTC) | temp C | wind direction | speed KPH | gust KPH | rain 1hr cm | rain 24hr cm | rain mn cm | humidity % | barometer mb |
| 20260502130416 | 5 | 224 | 4.8 | 12.9 | 0.00 | 0.00 | 0.00 | 77 | 1017.3 |
| 20260502123623 | 3 | 240 | 1.6 | 4.8 | 0.00 | 0.00 | 0.00 | 79 | 1017.3 |
| 20260502123415 | 2 | 240 | 1.6 | 4.8 | 0.00 | 0.00 | 0.00 | 79 | 1017.2 |
| 20260502122923 | 2 | 240 | 1.6 | 6.4 | 0.00 | 0.00 | 0.00 | 79 | 1017.2 |
| 20260502122415 | 2 | 240 | 3.2 | 6.4 | 0.00 | 0.00 | 0.00 | 79 | 1017.3 |
| 20260502122223 | 2 | 240 | 3.2 | 6.4 | 0.00 | 0.00 | 0.00 | 79 | 1017.3 |
| 20260502121525 | 2 | 240 | 1.6 | 4.8 | 0.00 | 0.00 | 0.00 | 80 | 1017.3 |
| 20260502121416 | 2 | 240 | 1.6 | 4.8 | 0.00 | 0.00 | 0.00 | 79 | 1017.4 |
| 20260502120823 | 2 | 240 | 1.6 | 6.4 | 0.00 | 0.00 | 0.00 | 80 | 1017.3 |
| 20260502120416 | 2 | 240 | 1.6 | 6.4 | 0.00 | 0.00 | 0.00 | 80 | 1017.5 |
| 20260502120123 | 2 | 240 | 1.6 | 6.4 | 0.00 | 0.00 | 0.00 | 80 | 1017.5 |
| 20260502115415 | 1 | 240 | 1.6 | 6.4 | 0.00 | 0.00 | 0.00 | 79 | 1017.4 |
| 20260502114724 | 1 | 240 | 0.0 | 1.6 | 0.00 | 0.00 | 0.00 | 79 | 1017.5 |
| 20260502114415 | 1 | 240 | 0.0 | 3.2 | 0.00 | 0.00 | 0.00 | 79 | 1017.5 |
| 20260502114023 | 1 | 240 | 0.0 | 3.2 | 0.00 | 0.00 | 0.00 | 79 | 1017.5 |
| 20260502113414 | 2 | 240 | 1.6 | 3.2 | 0.00 | 0.00 | 0.00 | 78 | 1017.5 |
| 20260502113321 | 2 | 240 | 1.6 | 3.2 | 0.00 | 0.00 | 0.00 | 78 | 1017.5 |
| 20260502112623 | 2 | 240 | 1.6 | 3.2 | 0.00 | 0.00 | 0.00 | 78 | 1017.5 |
| 20260502112415 | 2 | 240 | 1.6 | 4.8 | 0.00 | 0.00 | 0.00 | 78 | 1017.5 |
| 20260502111922 | 2 | 240 | 1.6 | 4.8 | 0.00 | 0.00 | 0.00 | 78 | 1017.5 |
| 20260502111415 | 2 | 240 | 1.6 | 4.8 | 0.00 | 0.00 | 0.00 | 77 | 1017.4 |
| 20260502111222 | 2 | 240 | 1.6 | 4.8 | 0.00 | 0.00 | 0.00 | 77 | 1017.4 |
| 20260502110524 | 2 | 240 | 1.6 | 3.2 | 0.00 | 0.00 | 0.00 | 77 | 1017.4 |
| 20260502110415 | 2 | 240 | 1.6 | 4.8 | 0.00 | 0.00 | 0.00 | 77 | 1017.5 |
| 20260502105822 | 2 | 240 | 3.2 | 4.8 | 0.00 | 0.00 | 0.00 | 77 | 1017.5 |
| 20260502105414 | 2 | 240 | 1.6 | 6.4 | 0.00 | 0.00 | 0.00 | 77 | 1017.5 |
| 20260502105123 | 2 | 240 | 1.6 | 6.4 | 0.00 | 0.00 | 0.00 | 77 | 1017.5 |
| 20260502104414 | 2 | 240 | 3.2 | 8.0 | 0.00 | 0.00 | 0.00 | 77 | 1017.5 |
| 20260502103722 | 2 | 240 | 3.2 | 8.0 | 0.00 | 0.00 | 0.00 | 77 | 1017.6 |
| 20260502103416 | 2 | 240 | 4.8 | 8.0 | 0.00 | 0.00 | 0.00 | 77 | 1017.8 |
| 20260502103023 | 2 | 240 | 4.8 | 8.0 | 0.00 | 0.00 | 0.00 | 77 | 1017.8 |
| 20260502102415 | 2 | 240 | 3.2 | 8.0 | 0.00 | 0.00 | 0.00 | 78 | 1017.8 |
| 20260502102323 | 2 | 240 | 3.2 | 8.0 | 0.00 | 0.00 | 0.00 | 78 | 1017.8 |
| 20260502101623 | 2 | 240 | 4.8 | 6.4 | 0.00 | 0.00 | 0.00 | 78 | 1017.7 |
| 20260502101415 | 2 | 240 | 3.2 | 8.0 | 0.00 | 0.00 | 0.00 | 78 | 1017.8 |
| 20260502100923 | 2 | 242 | 3.2 | 8.0 | 0.00 | 0.00 | 0.00 | 78 | 1017.8 |
| 20260502100415 | 2 | 243 | 1.6 | 8.0 | 0.00 | 0.00 | 0.00 | 78 | 1017.8 |
| 20260502100222 | 2 | 243 | 1.6 | 8.0 | 0.00 | 0.00 | 0.00 | 78 | 1017.8 |
| 20260502091414 | 2 | 277 | 1.6 | 4.8 | 0.00 | 0.00 | 0.00 | 78 | 1017.9 |
| 20260502091323 | 2 | 277 | 1.6 | 4.8 | 0.00 | 0.00 | 0.00 | 78 | 1017.9 |
| 20260502090414 | 2 | 277 | 0.0 | 4.8 | 0.00 | 0.00 | 0.00 | 78 | 1017.9 |
| 20260502071416 | 1 | 357 | 0.0 | 1.6 | 0.00 | 0.00 | 0.00 | 82 | 1018.2 |
| 20260502070724 | 1 | 357 | 0.0 | 1.6 | 0.00 | 0.00 | 0.00 | 82 | 1018.2 |
| 20260502070416 | 1 | 357 | 0.0 | 3.2 | 0.00 | 0.00 | 0.00 | 82 | 1018.2 |
| 20260502070028 | 1 | 357 | 0.0 | 3.2 | 0.00 | 0.00 | 0.00 | 82 | 1018.2 |
| 20260502065415 | 1 | 358 | 0.0 | 0.0 | 0.00 | 0.00 | 0.00 | 81 | 1018.2 |
| 20260502065325 | 1 | 358 | 0.0 | 0.0 | 0.00 | 0.00 | 0.00 | 81 | 1018.2 |
| 20260502064623 | 1 | 358 | 0.0 | 0.0 | 0.00 | 0.00 | 0.00 | 81 | 1018.3 |
| 20260502064415 | 1 | 358 | 0.0 | 1.6 | 0.00 | 0.00 | 0.00 | 81 | 1018.3 |
| 20260502063922 | 1 | 357 | 0.0 | 3.2 | 0.00 | 0.00 | 0.00 | 81 | 1018.3 |
| 20260502063415 | 1 | 358 | 0.0 | 3.2 | 0.00 | 0.00 | 0.00 | 81 | 1018.3 |
| 20260502063228 | 1 | 358 | 0.0 | 3.2 | 0.00 | 0.00 | 0.00 | 81 | 1018.3 |
| 20260502062524 | 1 | 357 | 0.0 | 1.6 | 0.00 | 0.00 | 0.00 | 81 | 1018.4 |
| 20260502062415 | 1 | 357 | 0.0 | 3.2 | 0.00 | 0.00 | 0.00 | 81 | 1018.4 |
| 20260502061824 | 1 | 357 | 1.6 | 3.2 | 0.00 | 0.00 | 0.00 | 80 | 1018.4 |
| 20260502061415 | 1 | 358 | 0.0 | 1.6 | 0.00 | 0.00 | 0.00 | 80 | 1018.4 |
| 20260502061123 | 1 | 358 | 0.0 | 1.6 | 0.00 | 0.00 | 0.00 | 80 | 1018.4 |
| 20260502060414 | 1 | 357 | 0.0 | 1.6 | 0.00 | 0.00 | 0.00 | 80 | 1018.5 |
| 20260502055723 | 1 | 358 | 0.0 | 0.0 | 0.00 | 0.00 | 0.00 | 80 | 1018.5 |
| 20260502055414 | 2 | 358 | 0.0 | 1.6 | 0.00 | 0.00 | 0.00 | 79 | 1018.5 |
| 20260502055024 | 2 | 358 | 0.0 | 1.6 | 0.00 | 0.00 | 0.00 | 79 | 1018.5 |
| 20260502054414 | 2 | 358 | 0.0 | 3.2 | 0.00 | 0.00 | 0.00 | 79 | 1018.6 |
| 20260502054323 | 2 | 358 | 0.0 | 3.2 | 0.00 | 0.00 | 0.00 | 79 | 1018.6 |
| 20260502053623 | 2 | 357 | 1.6 | 3.2 | 0.00 | 0.00 | 0.00 | 78 | 1018.7 |
| 20260502053415 | 2 | 357 | 0.0 | 3.2 | 0.00 | 0.00 | 0.00 | 78 | 1018.6 |
| 20260502052923 | 2 | 358 | 0.0 | 0.0 | 0.00 | 0.00 | 0.00 | 77 | 1018.5 |
| 20260502052415 | 2 | 358 | 0.0 | 0.0 | 0.00 | 0.00 | 0.00 | 78 | 1018.6 |
| 20260502052223 | 2 | 358 | 0.0 | 0.0 | 0.00 | 0.00 | 0.00 | 78 | 1018.6 |
| 20260502051526 | 2 | 358 | 0.0 | 0.0 | 0.00 | 0.00 | 0.00 | 77 | 1018.5 |
| 20260502051415 | 2 | 358 | 0.0 | 0.0 | 0.00 | 0.00 | 0.00 | 77 | 1018.5 |
| 20260502050822 | 2 | 358 | 0.0 | 0.0 | 0.00 | 0.00 | 0.00 | 76 | 1018.5 |
| 20260502050415 | 2 | 358 | 0.0 | 0.0 | 0.00 | 0.00 | 0.00 | 75 | 1018.5 |
| 20260502050122 | 2 | 358 | 0.0 | 0.0 | 0.00 | 0.00 | 0.00 | 75 | 1018.5 |
| 20260502045414 | 3 | 358 | 0.0 | 0.0 | 0.00 | 0.00 | 0.00 | 74 | 1018.5 |
| 20260502044721 | 3 | 358 | 0.0 | 0.0 | 0.00 | 0.00 | 0.00 | 73 | 1018.6 |
| 20260502044414 | 3 | 358 | 0.0 | 0.0 | 0.00 | 0.00 | 0.00 | 73 | 1018.5 |
| 20260502044022 | 3 | 358 | 0.0 | 0.0 | 0.00 | 0.00 | 0.00 | 73 | 1018.5 |
| 20260502043414 | 3 | 358 | 0.0 | 0.0 | 0.00 | 0.03 | 0.00 | 72 | 1018.5 |
| 20260502043324 | 3 | 358 | 0.0 | 0.0 | 0.00 | 0.03 | 0.00 | 72 | 1018.5 |
| 20260502042626 | 3 | 358 | 0.0 | 0.0 | 0.00 | 0.03 | 0.00 | 72 | 1018.4 |
| 20260502042415 | 3 | 358 | 0.0 | 0.0 | 0.00 | 0.03 | 0.00 | 72 | 1018.5 |
| 20260502041923 | 3 | 358 | 0.0 | 0.0 | 0.00 | 0.05 | 0.00 | 71 | 1018.6 |
| 20260502041416 | 4 | 358 | 0.0 | 0.0 | 0.00 | 0.08 | 0.00 | 70 | 1018.6 |
| 20260502041223 | 4 | 358 | 0.0 | 0.0 | 0.00 | 0.08 | 0.00 | 70 | 1018.6 |
| 20260502040526 | 4 | 358 | 0.0 | 0.0 | 0.00 | 0.08 | 0.00 | 70 | 1018.6 |
| 20260502040415 | 4 | 358 | 0.0 | 0.0 | 0.00 | 0.08 | 0.00 | 69 | 1018.6 |
| 20260502035823 | 4 | 358 | 0.0 | 0.0 | 0.00 | 0.08 | 0.00 | 68 | 1018.5 |
| 20260502035415 | 5 | 358 | 0.0 | 0.0 | 0.00 | 0.08 | 0.00 | 69 | 1018.6 |
| 20260502035125 | 5 | 358 | 0.0 | 0.0 | 0.00 | 0.08 | 0.00 | 69 | 1018.6 |
| 20260502034415 | 5 | 358 | 0.0 | 0.0 | 0.00 | 0.08 | 0.00 | 67 | 1018.6 |
| 20260502033724 | 5 | 358 | 0.0 | 0.0 | 0.00 | 0.08 | 0.00 | 65 | 1018.6 |
| 20260502033415 | 5 | 358 | 0.0 | 0.0 | 0.00 | 0.08 | 0.00 | 63 | 1018.5 |
| 20260502033024 | 5 | 358 | 0.0 | 0.0 | 0.00 | 0.08 | 0.00 | 63 | 1018.5 |
| 20260502032415 | 5 | 358 | 0.0 | 0.0 | 0.00 | 0.08 | 0.00 | 62 | 1018.5 |
| 20260502032322 | 5 | 358 | 0.0 | 0.0 | 0.00 | 0.08 | 0.00 | 62 | 1018.5 |
| 20260502031627 | 6 | 358 | 0.0 | 0.0 | 0.00 | 0.08 | 0.00 | 61 | 1018.4 |
| 20260502031415 | 6 | 358 | 0.0 | 0.0 | 0.00 | 0.08 | 0.00 | 61 | 1018.4 |
| 20260502030922 | 6 | 358 | 0.0 | 0.0 | 0.00 | 0.08 | 0.00 | 60 | 1018.4 |
| 20260502030415 | 6 | 358 | 0.0 | 0.0 | 0.00 | 0.08 | 0.00 | 60 | 1018.3 |
| 20260502030224 | 6 | 358 | 0.0 | 0.0 | 0.00 | 0.08 | 0.00 | 60 | 1018.3 |
| 20260502025523 | 6 | 358 | 0.0 | 0.0 | 0.00 | 0.08 | 0.00 | 59 | 1018.3 |
| 20260502025414 | 6 | 358 | 0.0 | 0.0 | 0.00 | 0.08 | 0.00 | 59 | 1018.2 |
| 20260502024826 | 6 | 358 | 0.0 | 1.6 | 0.00 | 0.08 | 0.00 | 59 | 1018.2 |
| 20260502024414 | 6 | 358 | 0.0 | 1.6 | 0.00 | 0.08 | 0.00 | 58 | 1018.1 |
| 20260502024122 | 6 | 358 | 0.0 | 1.6 | 0.00 | 0.08 | 0.00 | 58 | 1018.1 |
| 20260502023416 | 6 | 358 | 0.0 | 0.0 | 0.00 | 0.08 | 0.00 | 58 | 1018.0 |
| 20260502022725 | 7 | 358 | 0.0 | 0.0 | 0.00 | 0.08 | 0.00 | 57 | 1018.0 |
| 20260502022416 | 7 | 358 | 0.0 | 3.2 | 0.00 | 0.08 | 0.00 | 56 | 1017.9 |
| 20260502022023 | 7 | 358 | 0.0 | 3.2 | 0.00 | 0.08 | 0.00 | 56 | 1017.9 |
| 20260502021416 | 7 | 357 | 0.0 | 6.4 | 0.00 | 0.08 | 0.00 | 54 | 1017.9 |
| 20260502021324 | 7 | 357 | 0.0 | 6.4 | 0.00 | 0.08 | 0.00 | 54 | 1017.9 |
| 20260502020623 | 8 | 311 | 1.6 | 4.8 | 0.00 | 0.08 | 0.00 | 52 | 1017.8 |
| 20260502020415 | 8 | 311 | 1.6 | 4.8 | 0.00 | 0.08 | 0.00 | 52 | 1017.8 |
| 20260502015925 | 8 | 311 | 1.6 | 6.4 | 0.00 | 0.08 | 0.00 | 52 | 1017.8 |
| 20260502015415 | 8 | 311 | 3.2 | 6.4 | 0.00 | 0.08 | 0.00 | 51 | 1017.7 |
| 20260502015222 | 8 | 311 | 3.2 | 6.4 | 0.00 | 0.08 | 0.00 | 51 | 1017.7 |
| 20260502014524 | 8 | 311 | 1.6 | 4.8 | 0.00 | 0.08 | 0.00 | 52 | 1017.6 |
| 20260502014416 | 8 | 311 | 0.0 | 8.0 | 0.00 | 0.08 | 0.00 | 52 | 1017.7 |
| 20260502013824 | 8 | 311 | 1.6 | 8.0 | 0.00 | 0.08 | 0.00 | 51 | 1017.6 |
| 20260502013416 | 8 | 353 | 0.0 | 8.0 | 0.00 | 0.08 | 0.00 | 51 | 1017.6 |
| 20260502013124 | 8 | 353 | 0.0 | 8.0 | 0.00 | 0.08 | 0.00 | 51 | 1017.6 |
| 20260502012415 | 9 | 300 | 1.6 | 8.0 | 0.00 | 0.08 | 0.00 | 50 | 1017.7 |
| 20260502011724 | 9 | 321 | 3.2 | 6.4 | 0.00 | 0.08 | 0.00 | 49 | 1017.6 |
| 20260502011415 | 10 | 322 | 1.6 | 9.7 | 0.00 | 0.08 | 0.00 | 50 | 1017.6 |
| 20260502011025 | 10 | 322 | 1.6 | 9.7 | 0.00 | 0.08 | 0.00 | 50 | 1017.6 |
| 20260502010415 | 10 | 318 | 3.2 | 11.3 | 0.00 | 0.08 | 0.00 | 49 | 1017.6 |
| 20260502010323 | 10 | 318 | 3.2 | 11.3 | 0.00 | 0.08 | 0.00 | 49 | 1017.6 |
| 20260502005623 | 10 | 315 | 3.2 | 11.3 | 0.00 | 0.08 | 0.00 | 49 | 1017.5 |
| 20260502005415 | 10 | 337 | 3.2 | 9.7 | 0.00 | 0.08 | 0.00 | 49 | 1017.5 |
| 20260502004922 | 10 | 323 | 4.8 | 8.0 | 0.00 | 0.08 | 0.00 | 49 | 1017.4 |
| 20260502004414 | 10 | 340 | 3.2 | 9.7 | 0.00 | 0.08 | 0.00 | 49 | 1017.4 |
| 20260502004222 | 10 | 340 | 3.2 | 9.7 | 0.00 | 0.08 | 0.00 | 49 | 1017.4 |
| 20260502003522 | 10 | 323 | 1.6 | 9.7 | 0.00 | 0.08 | 0.00 | 49 | 1017.4 |
| 20260502003414 | 10 | 350 | 6.4 | 12.9 | 0.00 | 0.08 | 0.00 | 48 | 1017.4 |
| 20260502002822 | 11 | 7 | 6.4 | 12.9 | 0.00 | 0.08 | 0.00 | 48 | 1017.3 |
| 20260502002415 | 11 | 7 | 1.6 | 8.0 | 0.00 | 0.08 | 0.00 | 49 | 1017.4 |
| 20260502002131 | 11 | 7 | 1.6 | 8.0 | 0.00 | 0.08 | 0.00 | 49 | 1017.4 |
| 20260502001415 | 11 | 15 | 3.2 | 9.7 | 0.00 | 0.08 | 0.00 | 48 | 1017.4 |
| 20260502000725 | 11 | 4 | 4.8 | 9.7 | 0.00 | 0.08 | 0.00 | 47 | 1017.3 |
| 20260502000416 | 11 | 22 | 4.8 | 12.9 | 0.00 | 0.08 | 0.00 | 47 | 1017.4 |
| 20260502000022 | 11 | 22 | 4.8 | 12.9 | 0.00 | 0.08 | 0.00 | 47 | 1017.4 |
| 20260501235414 | 11 | 341 | 6.4 | 16.1 | 0.00 | 0.08 | 0.00 | 47 | 1017.3 |
| 20260501235322 | 11 | 341 | 6.4 | 16.1 | 0.00 | 0.08 | 0.00 | 47 | 1017.3 |
| 20260501234622 | 11 | 348 | 4.8 | 11.3 | 0.00 | 0.08 | 0.00 | 46 | 1017.2 |
| 20260501234414 | 11 | 301 | 3.2 | 11.3 | 0.00 | 0.08 | 0.00 | 46 | 1017.3 |
| 20260501233923 | 11 | 314 | 4.8 | 11.3 | 0.00 | 0.08 | 0.00 | 48 | 1017.2 |
| 20260501233414 | 11 | 359 | 4.8 | 11.3 | 0.00 | 0.08 | 0.00 | 46 | 1017.2 |
| 20260501233221 | 11 | 359 | 4.8 | 11.3 | 0.00 | 0.08 | 0.00 | 46 | 1017.2 |
| 20260501232522 | 11 | 324 | 3.2 | 12.9 | 0.00 | 0.08 | 0.00 | 48 | 1017.2 |
| 20260501232416 | 11 | 348 | 6.4 | 12.9 | 0.00 | 0.08 | 0.00 | 46 | 1017.3 |
| 20260501231823 | 11 | 1 | 3.2 | 12.9 | 0.00 | 0.08 | 0.00 | 47 | 1017.3 |
| 20260501231416 | 11 | 346 | 6.4 | 12.9 | 0.00 | 0.08 | 0.00 | 45 | 1017.3 |
| 20260501231124 | 11 | 346 | 6.4 | 12.9 | 0.00 | 0.08 | 0.00 | 45 | 1017.3 |
| 20260501230415 | 11 | 340 | 9.7 | 16.1 | 0.00 | 0.08 | 0.00 | 46 | 1017.4 |
| 20260501225726 | 11 | 347 | 11.3 | 16.1 | 0.00 | 0.08 | 0.00 | 46 | 1017.3 |
| 20260501225415 | 11 | 344 | 8.0 | 14.5 | 0.00 | 0.08 | 0.00 | 46 | 1017.3 |
| 20260501225023 | 11 | 344 | 8.0 | 14.5 | 0.00 | 0.08 | 0.00 | 46 | 1017.3 |
| 20260501224415 | 10 | 316 | 4.8 | 16.1 | 0.00 | 0.08 | 0.00 | 47 | 1017.4 |
| 20260501224326 | 10 | 316 | 4.8 | 16.1 | 0.00 | 0.08 | 0.00 | 47 | 1017.4 |
| 20260501223623 | 10 | 334 | 6.4 | 12.9 | 0.00 | 0.08 | 0.00 | 49 | 1017.4 |
| 20260501223415 | 10 | 357 | 6.4 | 12.9 | 0.00 | 0.08 | 0.00 | 47 | 1017.3 |
| 20260501222922 | 10 | 350 | 6.4 | 11.3 | 0.00 | 0.08 | 0.00 | 47 | 1017.4 |
| 20260501222414 | 10 | 308 | 4.8 | 11.3 | 0.00 | 0.08 | 0.00 | 50 | 1017.4 |
| 20260501222224 | 10 | 308 | 4.8 | 11.3 | 0.00 | 0.08 | 0.00 | 50 | 1017.4 |
| 20260501221521 | 10 | 337 | 4.8 | 20.9 | 0.00 | 0.08 | 0.00 | 48 | 1017.5 |
| 20260501221414 | 11 | 331 | 6.4 | 20.9 | 0.00 | 0.08 | 0.00 | 47 | 1017.5 |
| 20260501220822 | 11 | 323 | 3.2 | 14.5 | 0.00 | 0.08 | 0.00 | 48 | 1017.4 |
| 20260501220414 | 11 | 319 | 6.4 | 20.9 | 0.00 | 0.08 | 0.00 | 47 | 1017.4 |
| 20260501220121 | 11 | 319 | 6.4 | 20.9 | 0.00 | 0.08 | 0.00 | 47 | 1017.4 |
| 20260501215416 | 11 | 13 | 9.7 | 17.7 | 0.00 | 0.08 | 0.00 | 48 | 1017.3 |
| 20260501214724 | 11 | 350 | 8.0 | 17.7 | 0.00 | 0.08 | 0.00 | 49 | 1017.4 |
| 20260501214416 | 11 | 343 | 6.4 | 14.5 | 0.00 | 0.08 | 0.00 | 48 | 1017.3 |
| 20260501214024 | 11 | 343 | 6.4 | 14.5 | 0.00 | 0.08 | 0.00 | 48 | 1017.3 |
| 20260501213415 | 11 | 359 | 6.4 | 14.5 | 0.00 | 0.08 | 0.00 | 48 | 1017.6 |
| 20260501213323 | 11 | 359 | 6.4 | 14.5 | 0.00 | 0.08 | 0.00 | 48 | 1017.6 |
| 20260501212624 | 11 | 358 | 8.0 | 19.3 | 0.00 | 0.08 | 0.00 | 48 | 1017.5 |
| 20260501212415 | 11 | 343 | 6.4 | 19.3 | 0.00 | 0.08 | 0.00 | 50 | 1017.5 |
| 20260501211924 | 11 | 41 | 6.4 | 16.1 | 0.00 | 0.08 | 0.00 | 50 | 1017.5 |
| 20260501211415 | 11 | 1 | 8.0 | 16.1 | 0.00 | 0.08 | 0.00 | 50 | 1017.6 |
| 20260501211222 | 11 | 1 | 8.0 | 16.1 | 0.00 | 0.08 | 0.00 | 50 | 1017.6 |
| 20260501210524 | 11 | 1 | 4.8 | 19.3 | 0.00 | 0.08 | 0.00 | 49 | 1017.6 |
| 20260501210415 | 11 | 347 | 8.0 | 19.3 | 0.00 | 0.08 | 0.00 | 50 | 1017.7 |
| 20260501205823 | 10 | 58 | 6.4 | 16.1 | 0.00 | 0.08 | 0.00 | 49 | 1017.7 |
| 20260501205415 | 10 | 23 | 8.0 | 16.1 | 0.00 | 0.08 | 0.00 | 50 | 1017.7 |
| 20260501205122 | 10 | 23 | 8.0 | 16.1 | 0.00 | 0.08 | 0.00 | 50 | 1017.7 |
| 20260501204415 | 10 | 17 | 6.4 | 14.5 | 0.00 | 0.08 | 0.00 | 51 | 1017.8 |
| 20260501203722 | 10 | 16 | 6.4 | 17.7 | 0.00 | 0.08 | 0.00 | 50 | 1017.9 |
| 20260501203414 | 11 | 4 | 4.8 | 17.7 | 0.00 | 0.08 | 0.00 | 51 | 1017.8 |
| 20260501203024 | 11 | 4 | 4.8 | 17.7 | 0.00 | 0.08 | 0.00 | 51 | 1017.8 |
| 20260501202415 | 10 | 326 | 4.8 | 16.1 | 0.00 | 0.08 | 0.00 | 51 | 1017.9 |
| 20260501202328 | 10 | 326 | 4.8 | 16.1 | 0.00 | 0.08 | 0.00 | 51 | 1017.9 |
| 20260501201624 | 11 | 336 | 6.4 | 16.1 | 0.00 | 0.08 | 0.00 | 52 | 1017.9 |
| 20260501201415 | 10 | 339 | 4.8 | 19.3 | 0.00 | 0.08 | 0.00 | 53 | 1017.8 |
| 20260501200924 | 10 | 1 | 9.7 | 19.3 | 0.00 | 0.08 | 0.00 | 53 | 1017.9 |
| 20260501200415 | 10 | 288 | 3.2 | 17.7 | 0.00 | 0.08 | 0.00 | 55 | 1017.9 |
| 20260501200222 | 10 | 288 | 3.2 | 17.7 | 0.00 | 0.08 | 0.00 | 55 | 1017.9 |
| 20260501195524 | 10 | 347 | 9.7 | 17.7 | 0.00 | 0.08 | 0.00 | 52 | 1018.0 |
| 20260501195415 | 10 | 341 | 4.8 | 12.9 | 0.00 | 0.08 | 0.00 | 53 | 1017.9 |
| 20260501194822 | 10 | 269 | 4.8 | 11.3 | 0.00 | 0.08 | 0.00 | 55 | 1017.8 |
| 20260501194415 | 10 | 337 | 6.4 | 17.7 | 0.00 | 0.08 | 0.00 | 53 | 1017.9 |
| 20260501194123 | 10 | 337 | 6.4 | 17.7 | 0.00 | 0.08 | 0.00 | 53 | 1017.9 |
| 20260501193414 | 10 | 50 | 6.4 | 12.9 | 0.00 | 0.08 | 0.00 | 54 | 1018.0 |
| 20260501192725 | 10 | 8 | 4.8 | 16.1 | 0.00 | 0.08 | 0.00 | 55 | 1018.0 |
| 20260501192414 | 10 | 324 | 3.2 | 16.1 | 0.00 | 0.08 | 0.00 | 56 | 1018.0 |
| 20260501192029 | 10 | 324 | 3.2 | 16.1 | 0.00 | 0.08 | 0.00 | 56 | 1018.0 |
| 20260501191414 | 10 | 358 | 6.4 | 16.1 | 0.00 | 0.08 | 0.00 | 56 | 1018.2 |
| 20260501191322 | 10 | 358 | 6.4 | 16.1 | 0.00 | 0.08 | 0.00 | 56 | 1018.2 |
| 20260501190622 | 10 | 22 | 9.7 | 16.1 | 0.00 | 0.08 | 0.00 | 55 | 1018.2 |
| 20260501190414 | 9 | 5 | 4.8 | 14.5 | 0.00 | 0.08 | 0.00 | 56 | 1018.1 |
| 20260501185926 | 9 | 37 | 6.4 | 12.9 | 0.00 | 0.08 | 0.00 | 55 | 1018.1 |
| 20260501185416 | 9 | 346 | 4.8 | 12.9 | 0.00 | 0.08 | 0.00 | 58 | 1018.2 |
| 20260501185223 | 9 | 346 | 4.8 | 12.9 | 0.00 | 0.08 | 0.00 | 58 | 1018.2 |
| 20260501184525 | 9 | 347 | 4.8 | 11.3 | 0.00 | 0.08 | 0.00 | 56 | 1018.2 |
| 20260501184415 | 9 | 316 | 4.8 | 22.5 | 0.00 | 0.08 | 0.00 | 56 | 1018.0 |
| 20260501183823 | 9 | 35 | 6.4 | 22.5 | 0.00 | 0.08 | 0.00 | 56 | 1018.2 |
| 20260501183415 | 9 | 3 | 4.8 | 19.3 | 0.00 | 0.08 | 0.00 | 59 | 1018.2 |
| 20260501183122 | 9 | 3 | 4.8 | 19.3 | 0.00 | 0.08 | 0.00 | 59 | 1018.2 |
| 20260501182415 | 9 | 19 | 6.4 | 16.1 | 0.00 | 0.08 | 0.00 | 58 | 1018.2 |
| 20260501181723 | 8 | 6 | 8.0 | 14.5 | 0.00 | 0.08 | 0.00 | 60 | 1018.2 |
| 20260501181415 | 8 | 329 | 3.2 | 14.5 | 0.00 | 0.08 | 0.00 | 60 | 1018.1 |
| 20260501181026 | 8 | 329 | 3.2 | 14.5 | 0.00 | 0.08 | 0.00 | 60 | 1018.1 |
| 20260501180415 | 8 | 308 | 4.8 | 14.5 | 0.00 | 0.08 | 0.00 | 61 | 1018.3 |
| 20260501180322 | 8 | 308 | 4.8 | 14.5 | 0.00 | 0.08 | 0.00 | 61 | 1018.3 |
| 20260501175624 | 8 | 25 | 4.8 | 14.5 | 0.00 | 0.08 | 0.00 | 60 | 1018.3 |
| 20260501175414 | 8 | 345 | 6.4 | 14.5 | 0.00 | 0.08 | 0.00 | 60 | 1018.3 |
| 20260501174922 | 8 | 321 | 9.7 | 17.7 | 0.00 | 0.08 | 0.00 | 60 | 1018.3 |
| 20260501174414 | 8 | 352 | 8.0 | 17.7 | 0.00 | 0.08 | 0.00 | 60 | 1018.3 |
| 20260501174225 | 8 | 352 | 8.0 | 17.7 | 0.00 | 0.08 | 0.00 | 60 | 1018.3 |
| 20260501173523 | 8 | 339 | 6.4 | 16.1 | 0.00 | 0.08 | 0.00 | 60 | 1018.4 |
| 20260501173414 | 8 | 23 | 6.4 | 19.3 | 0.00 | 0.08 | 0.00 | 60 | 1018.5 |
| 20260501172823 | 8 | 18 | 6.4 | 19.3 | 0.00 | 0.08 | 0.00 | 61 | 1018.5 |
| 20260501172415 | 7 | 350 | 6.4 | 16.1 | 0.00 | 0.08 | 0.00 | 63 | 1018.4 |
| 20260501172123 | 7 | 350 | 6.4 | 16.1 | 0.00 | 0.08 | 0.00 | 63 | 1018.4 |
| 20260501171414 | 7 | 356 | 4.8 | 19.3 | 0.00 | 0.08 | 0.00 | 62 | 1018.4 |
| 20260501170721 | 7 | 345 | 11.3 | 19.3 | 0.00 | 0.08 | 0.00 | 62 | 1018.6 |
| 20260501170414 | 7 | 12 | 8.0 | 16.1 | 0.00 | 0.08 | 0.00 | 63 | 1018.5 |
| 20260501170023 | 7 | 12 | 8.0 | 16.1 | 0.00 | 0.08 | 0.00 | 63 | 1018.5 |
| 20260501165416 | 7 | 4 | 8.0 | 17.7 | 0.00 | 0.08 | 0.00 | 64 | 1018.5 |
| 20260501165324 | 7 | 4 | 8.0 | 17.7 | 0.00 | 0.08 | 0.00 | 64 | 1018.5 |
| 20260501164623 | 7 | 343 | 4.8 | 22.5 | 0.00 | 0.08 | 0.00 | 65 | 1018.4 |
| 20260501164416 | 7 | 9 | 8.0 | 22.5 | 0.00 | 0.08 | 0.00 | 66 | 1018.5 |
| 20260501163926 | 6 | 0 | 6.4 | 16.1 | 0.00 | 0.08 | 0.00 | 64 | 1018.5 |
| 20260501163415 | 6 | 340 | 6.4 | 22.5 | 0.00 | 0.08 | 0.00 | 64 | 1018.5 |
| 20260501163224 | 6 | 340 | 6.4 | 22.5 | 0.00 | 0.08 | 0.00 | 64 | 1018.5 |
| 20260501162524 | 6 | 354 | 8.0 | 22.5 | 0.00 | 0.08 | 0.00 | 64 | 1018.4 |
| 20260501162415 | 6 | 342 | 11.3 | 22.5 | 0.00 | 0.08 | 0.00 | 63 | 1018.6 |
| 20260501161822 | 6 | 1 | 9.7 | 19.3 | 0.00 | 0.08 | 0.00 | 66 | 1018.5 |
| 20260501161414 | 6 | 338 | 6.4 | 17.7 | 0.00 | 0.08 | 0.00 | 67 | 1018.4 |
| 20260501161122 | 6 | 338 | 6.4 | 17.7 | 0.00 | 0.08 | 0.00 | 67 | 1018.4 |
| 20260501160414 | 6 | 339 | 9.7 | 17.7 | 0.00 | 0.08 | 0.00 | 67 | 1018.5 |
| 20260501155723 | 5 | 351 | 9.7 | 24.1 | 0.00 | 0.08 | 0.00 | 65 | 1018.6 |
| 20260501155416 | 5 | 345 | 9.7 | 24.1 | 0.00 | 0.08 | 0.00 | 66 | 1018.5 |
| 20260501155028 | 5 | 345 | 9.7 | 24.1 | 0.00 | 0.08 | 0.00 | 66 | 1018.5 |
| 20260501154415 | 5 | 358 | 8.0 | 16.1 | 0.00 | 0.08 | 0.00 | 68 | 1018.5 |
| 20260501154325 | 5 | 358 | 8.0 | 16.1 | 0.00 | 0.08 | 0.00 | 68 | 1018.5 |
| 20260501153624 | 5 | 337 | 8.0 | 16.1 | 0.00 | 0.08 | 0.00 | 69 | 1018.6 |
| 20260501153415 | 5 | 333 | 3.2 | 25.7 | 0.00 | 0.08 | 0.00 | 68 | 1018.6 |
| 20260501152922 | 5 | 346 | 14.5 | 25.7 | 0.00 | 0.08 | 0.00 | 67 | 1018.6 |
| 20260501152415 | 5 | 4 | 6.4 | 24.1 | 0.00 | 0.08 | 0.00 | 68 | 1018.5 |
| 20260501152225 | 5 | 4 | 6.4 | 24.1 | 0.00 | 0.08 | 0.00 | 68 | 1018.5 |
| 20260501151522 | 5 | 345 | 11.3 | 24.1 | 0.00 | 0.08 | 0.00 | 68 | 1018.5 |
| 20260501151414 | 5 | 334 | 8.0 | 22.5 | 0.00 | 0.08 | 0.00 | 70 | 1018.5 |
| 20260501150825 | 5 | 345 | 8.0 | 16.1 | 0.00 | 0.08 | 0.00 | 70 | 1018.5 |
| 20260501150414 | 5 | 332 | 6.4 | 19.3 | 0.00 | 0.08 | 0.00 | 72 | 1018.4 |
| 20260501150125 | 5 | 332 | 6.4 | 19.3 | 0.00 | 0.08 | 0.00 | 72 | 1018.4 |
| 20260501145415 | 5 | 345 | 8.0 | 17.7 | 0.00 | 0.08 | 0.00 | 70 | 1018.4 |
| 20260501144723 | 5 | 330 | 8.0 | 20.9 | 0.00 | 0.08 | 0.00 | 71 | 1018.5 |
| 20260501144415 | 5 | 349 | 9.7 | 20.9 | 0.00 | 0.08 | 0.00 | 74 | 1018.5 |
| 20260501144024 | 5 | 349 | 9.7 | 20.9 | 0.00 | 0.08 | 0.00 | 74 | 1018.5 |
| 20260501143415 | 4 | 345 | 6.4 | 12.9 | 0.00 | 0.08 | 0.00 | 76 | 1018.6 |
| 20260501143322 | 4 | 345 | 6.4 | 12.9 | 0.00 | 0.08 | 0.00 | 76 | 1018.6 |
| 20260501142623 | 4 | 334 | 6.4 | 14.5 | 0.00 | 0.08 | 0.00 | 78 | 1018.5 |
| 20260501142414 | 3 | 326 | 4.8 | 14.5 | 0.00 | 0.08 | 0.00 | 77 | 1018.5 |
| 20260501141926 | 3 | 339 | 8.0 | 12.9 | 0.00 | 0.08 | 0.00 | 78 | 1018.5 |
| 20260501141414 | 3 | 355 | 4.8 | 12.9 | 0.00 | 0.08 | 0.00 | 79 | 1018.6 |
| 20260501141227 | 3 | 355 | 4.8 | 12.9 | 0.00 | 0.08 | 0.00 | 79 | 1018.6 |
| 20260501140525 | 3 | 352 | 6.4 | 12.9 | 0.00 | 0.08 | 0.00 | 79 | 1018.6 |
| 20260501140414 | 3 | 337 | 8.0 | 12.9 | 0.00 | 0.08 | 0.00 | 80 | 1018.5 |
| 20260501135823 | 3 | 358 | 3.2 | 9.7 | 0.00 | 0.08 | 0.00 | 82 | 1018.5 |